Regional Weather Roundup
Issued by NWS

Home | Current Version | Previous Version | Text Only | Print | Product List | Glossary On
Versions: 1 2 3 4 5 6 7 8 9 10 11 12 13 14 15 16 17 18 19 20 21 22 23 24 25 26 27 28 29 30 31 32 33 34 35 36 37 38 39 40 41 42 43 44 45 46 47 48 49 50
623
ASUS45 KCYS 290010
RWRWY

WYOMING REGIONAL WEATHER ROUNDUP
NATIONAL WEATHER SERVICE CHEYENNE WY
600 PM MDT THU APR 28 2016

NOTE:  "FAIR" INDICATES FEW OR NO CLOUDS BELOW 12,000 FEET
WITH NO SIGNIFICANT WEATHER AND/OR OBSTRUCTIONS TO VISIBILITY.

WYZ001-290100-
YELLOWSTONE NATIONAL PARK

CITY           SKY/WX    TMP DP  RH WIND       PRES   REMARKS
LK YELLOWSTONE   N/A     36  25  64 VRB5      29.91S WCI  32
6HR MIN TEMP:  34; 6HR MAX TEMP:  39;

W YELLOWSTONE  NOT AVBL

$$
WYZ002>013-054>058-071-098>099-290100-
NORTHERN WYOMING

CITY           SKY/WX    TMP DP  RH WIND       PRES   REMARKS
JACKSON        PTSUNNY   48  23  37 N9        29.83R
CODY           CLOUDY    37  28  70 N10       30.02R WCI  30
GREYBULL       CLOUDY    46  29  51 N3        30.00S
6HR MIN TEMP:  42; 6HR MAX TEMP:  47;

WORLAND        CLOUDY    43  31  62 CALM      30.01R
6HR MIN TEMP:  38; 6HR MAX TEMP:  43;

SHERIDAN       CLOUDY    39  32  76 CALM      30.07R
6HR MIN TEMP:  37; 6HR MAX TEMP:  41; 6HR PCP: TRACE;

BUFFALO        CLOUDY    36  31  82 N6        30.06R WCI  31
6HR MIN TEMP:  34; 6HR MAX TEMP:  37; 6HR PCP:  0.01;

GILLETTE       CLOUDY    37  32  82 N10       30.06R WCI  30
6HR MIN TEMP:  34; 6HR MAX TEMP:  38; 6HR PCP: TRACE;

HULETT         CLOUDY    37  32  81 E8        30.08R WCI  31
NEWCASTLE      CLOUDY    41  30  65 CALM      30.06R

$$
WYZ014>020-022>026-101>103-290100-
CENTRAL WYOMING

CITY           SKY/WX    TMP DP  RH WIND       PRES   REMARKS
BIG PINEY      CLOUDY    39  27  62 S16       29.92R WCI  30
6HR MIN TEMP:  39; 6HR MAX TEMP:  46;

PINEDALE       CLOUDY    37  27  65 S15       29.90S WCI  28
DUBOIS         FLURRIES  32  27  80 SE14      29.94R WCI  22
LANDER         CLOUDY    37  28  70 CALM      29.98R
6HR MIN TEMP:  31; 6HR MAX TEMP:  37; 6HR PCP:  0.02;

RIVERTON       CLOUDY    39  28  64 E12       30.00R WCI  32
6HR MIN TEMP:  35; 6HR MAX TEMP:  40;

CASPER         CLOUDY    36  25  64 E10       30.01S WCI  28
6HR MIN TEMP:  33; 6HR MAX TEMP:  36; 6HR PCP: TRACE;

DOUGLAS        CLOUDY    38  27  64 N3        30.04R
6HR MIN TEMP:  35; 6HR MAX TEMP:  38;


$$
WYZ021-027>030-104>119-290100-
SOUTHERN WYOMING

CITY           SKY/WX    TMP DP  RH WIND       PRES   REMARKS
EVANSTON       CLOUDY    35  27  72 E20G26    29.88R WCI  24
6HR MIN TEMP:  33; 6HR MAX TEMP:  38; 6HR PCP: TRACE;

KEMMERER         N/A     32  30  93 E17G26    29.92S WCI  21
FORT BRIDGER   LGT SNOW  32  32 100 E17       29.93R VSB 1   WCI  21
ROCK SPRINGS   CLOUDY    34  29  82 NE22G29   29.91S WCI  22
6HR MIN TEMP:  32; 6HR MAX TEMP:  35; 6HR PCP: TRACE;

DIXON          MOCLDY    45  35  68 N8        29.87F
RAWLINS        CLOUDY    32  28  85 NE21G28   29.94R WCI  20
6HR MIN TEMP:  31; 6HR MAX TEMP:  34;

SARATOGA       MOCLDY    36  32  87 N9        29.92R WCI  29
LARAMIE        CLOUDY    31  26  82 SE18      29.94R WCI  19
6HR MIN TEMP:  28; 6HR MAX TEMP:  33; 6HR PCP:  0.03;

CHEYENNE       CLOUDY    35  32  88 S6        29.98R WCI  30
6HR MIN TEMP:  32; 6HR MAX TEMP:  36; 6HR PCP:  0.09;

TORRINGTON     CLOUDY    37  35  92 E6        30.03R WCI  32
6HR MIN TEMP:  37; 6HR MAX TEMP:  45; 6HR PCP:  0.03;

PINE BLUFFS    CLOUDY    34  34 100 E8        30.01R WCI  27

$$




USA.gov is the U.S. government's official web portal to all federal, state and local government web resources and services.